Flag for USA

Past Weather in Point Washington Wildlife Management Area, Florida, USA — Yesterday and Last 2 Weeks

Now
69 °F

Overcast.


Feels Like: 69 °F
Forecast: 80 / 64 °F
Wind: 17 mph from Northwest

Location: Tyndall Air Force Base

Current Time: Oct 19, 2019 at 8:20:12 pm

Latest Report: Oct 19, 2019 at 6:56 pm


Visibility: 10 mi

Pressure: 29.71 "Hg

Humidity: 84%

Dew Point: 64 °F

Location of Point Washington Wildlife Management AreaLocation

Past Weather in Point Washington Wildlife Management Area — Graph

°F

Point Washington Wildlife Management Area Temperature Yesterday

Maximum temperature yesterday: 65 °F (at 12:56 am)
Minimum temperature yesterday: 58 °F (at 6:56 pm)
Average temperature yesterday: 61 °F

High & Low Weather Summary for the Past Weeks

 TemperatureHumidityPressure
High91 °F (Oct 8, 1:56 pm)100% (Oct 19, 5:00 am)30.09 "Hg (Oct 19, 5:00 am)
Low58 °F (Oct 18, 6:56 pm)39% (Oct 8, 3:56 pm)29.54 "Hg (Oct 19, 1:26 pm)
Average76 °F76%29.94 "Hg
* Reported Oct 4 6:56 pm — Oct 19 6:56 pm, Point Washington Wildlife Management Area. Weather by CustomWeather, © 2019

Note: Actual official high and low records may vary slightly from our data, if they occured in-between our weather recording intervals... More about our weather records

Advertising

Point Washington Wildlife Management Area Weather History for the Previous 24 Hours

Scroll right to see more
 ConditionsComfort  
Time TempWeatherWind HumidityBarometerVisibility
6:56 pm
Sat, Oct 19
69 °FOvercast.17 mph84%29.71 "Hg10 mi
6:11 pm70 °FOvercast.12 mph83%29.68 "Hg10 mi
5:56 pm70 °FOvercast.15 mph85%29.67 "Hg10 mi
4:56 pm72 °FOvercast.13 mph85%29.63 "Hg10 mi
3:56 pm76 °FOvercast.15 mph84%29.59 "Hg10 mi
3:16 pm77 °FMostly cloudy.22 mph83%29.56 "Hg10 mi
2:56 pm77 °FLow clouds.21 mph84%29.55 "Hg10 mi
1:56 pm79 °FLow clouds.21 mph84%29.54 "Hg10 mi
1:26 pm81 °FLow clouds.21 mph79%29.54 "Hg10 mi
1:01 pm82 °FLow clouds.18 mph79%29.55 "Hg10 mi
12:56 pm83 °FMostly cloudy.18 mph81%29.55 "Hg10 mi
12:41 pm84 °FCloudy.14 mph84%29.55 "Hg10 mi
12:26 pm84 °FPartly sunny.13 mph84%29.55 "Hg10 mi
11:56 am84 °FScattered clouds.12 mph89%29.56 "Hg10 mi
11:16 am81 °FMostly cloudy.10 mph94%29.57 "Hg10 mi
11:11 am81 °FLow clouds.13 mph94%29.57 "Hg10 mi
10:32 am79 °FDrizzle. Fog.13 mph94%29.57 "Hg4 mi
10:13 am79 °FFog.13 mph94%29.58 "Hg6 mi
9:56 am80 °FLow clouds.13 mph94%29.58 "Hg10 mi
9:43 am79 °FMostly cloudy.13 mph94%29.58 "Hg10 mi
9:26 am77 °FDrizzle. Low clouds.10 mph94%29.59 "Hg10 mi
9:11 am77 °FLight rain. Fog.10 mph94%29.59 "Hg6 mi
9:01 am75 °FLight rain. Fog.10 mph100%29.59 "Hg2 mi
8:26 am75 °FDrizzle. Broken clouds.12 mph100%29.58 "Hg10 mi
8:16 am75 °FDrizzle. Broken clouds.14 mph94%29.58 "Hg10 mi
7:56 am76 °FLight rain. Mostly cloudy.16 mph94%29.58 "Hg10 mi
7:31 am75 °FLight rain. Fog.16 mph94%29.58 "Hg2 mi
7:16 am75 °FLight rain. Fog.12 mph94%29.58 "Hg2 mi
7:01 am73 °FHeavy rain. Fog.13 mph94%29.58 "Hg1 mi
6:16 am75 °FDrizzle. Mostly cloudy.13 mph94%29.59 "Hg10 mi
6:01 am73 °FLight rain. Mostly cloudy.13 mph94%29.59 "Hg7 mi
5:56 am74 °FLight rain. Fog.10 mph94%29.59 "Hg4 mi
5:00 am72 °FDrizzle. Overcast.14 mph100%29.60 "Hg10 mi
4:44 am72 °FLow clouds.9 mph94%29.61 "Hg10 mi
4:31 am70 °FDrizzle. Overcast.12 mph94%29.61 "Hg10 mi
4:16 am70 °FLight rain. Fog.8 mph94%29.62 "Hg4 mi
3:56 am69 °FLight rain. Low clouds.12 mph94%29.62 "Hg10 mi
2:56 am68 °FLight rain. Low clouds.14 mph94%29.64 "Hg8 mi
2:01 am66 °FLight rain. Low clouds.16 mph94%29.67 "Hg10 mi
12:56 am64 °FLow clouds.15 mph93%29.70 "Hg10 mi
12:16 am64 °FLow clouds.15 mph88%29.72 "Hg10 mi
11:56 pm
Fri, Oct 18
63 °FLow clouds.16 mph93%29.73 "Hg10 mi
11:43 pm63 °FLow clouds.16 mph94%29.75 "Hg10 mi
11:33 pm63 °FLow clouds.16 mph94%29.76 "Hg10 mi
10:56 pm62 °FLight rain. Fog.14 mph93%29.78 "Hg5 mi
10:41 pm61 °FRain. Fog.15 mph94%29.79 "Hg4 mi
10:06 pm61 °FLight rain. Fog.16 mph88%29.80 "Hg6 mi
9:56 pm60 °FRain. Fog.16 mph92%29.81 "Hg4 mi
9:31 pm59 °FRain. Fog.15 mph94%29.81 "Hg4 mi
8:56 pm59 °FRain. Fog.15 mph91%29.81 "Hg5 mi
8:36 pm59 °FHeavy rain. Fog.14 mph88%29.81 "Hg4 mi
8:21 pm59 °FLight rain. Fog.16 mph88%29.82 "Hg6 mi
8:06 pm59 °FRain. Fog.15 mph88%29.82 "Hg4 mi
8:01 pm59 °FRain. Fog.13 mph88%29.82 "Hg4 mi
Weather by CustomWeather, © 2019

See weather overview